Location: Grandview
(34.8900°N, 117.1058°W)
Time: 06:40:27
(UTC-07:00)

N. Korean satellite - Pass Details

Date: 09 October 2017
Orbit: 459 x 517 km, 97.2° (Epoch: 22 October)

Event Time Altitude Azimuth Distance (km) Brightness Sun altitude
Rises 19:53:28 0° 207° (SSW) 2,576 10.5 -19.8°
Reaches altitude 10° 19:56:23 10° 233° (SW) 1,686 9.9 -20.4°
Maximum altitude 19:58:21 14° 266° (W) 1,447 10.0 -20.8°
Drops below altitude 10° 20:00:18 10° 299° (WNW) 1,674 10.3 -21.2°
Sets 20:03:12 0° 325° (NW) 2,546 10.8 -21.8°
